Presure
254 273 238 212 137 249 261 267 280 231 234 234 224 208 197 188 191 180 207 203 171 192 165 173 182 188 184 178 181 176 180 172 165 160 194 192 192 181 193 192 193 186 188
271 275 289 292 167 293 224 238 259 268 283 291 227 236 225 203 185 191 200 202 179 179 182 203 171 203 184 180 184 173 173 165 164 183 163 165 167 182 169 175 188 194 201
264 309 284 287 307 299 292 295 271 228 243 263 280 298 236 231 209 182 189 187 185 187 198 193 183 183 180 171 156 178 171 178 175 189 165 174 174 172 175 178 182 176 183
288 287 289 286 286 315 335 303 297 263 269 266 225 198 126 301 228 223 196 191 189 184 184 192 177 196 185 181 185 153 181 174 168 182 170 173 172 176 175 150 184 182 181
292 284 284 296 283 289 302 309 311 297 293 263 263 298 238 268 289 263 227 213 199 159 146 197 192 204 191 178 196 199 177 178 158 183 181 189 192 183 191 191 190 194 127
277 274 271 279 315 307 281 288 290 290 289 297 303 270 269 278 241 283 277 233 219 213 196 201 198 170 148 187 154 184 180 138 192 190 197 170 155 164 184 174 161 128 160
267 255 255 253 350 321 313 265 264 269 271 275 286 277 287 254 304 235 267 296 240 178 201 194 162 191 185 184 181 190 151 179 182 192 170 150 182 152 172 126 181 174 192
258 264 320 321 346 357 335 332 348 365 369 385 260 273 285 276 265 305 233 260 224 248 212 148 209 190 183 190 190 192 183 161 202 138 189 159 199 171 184 156 181 185 137
250 265 307 293 308 321 335 327 341 321 361 389 402 376 270 257 267 273 294 239 250 290 141 214 172 193 199 189 179 190 184 200 164 201 185 170 185 136 174 124 115 181 131
241 305 299 300 301 291 309 326 319 332 336 370 379 383 382 247 240 250 272 284 231 191 283 239 206 190 199 185 203 168 180 175 200 163 179 165 152 184 180 186 176 157 180
229 272 274 288 303 298 292 314 321 323 332 342 360 369 397 413 267 244 243 279 245 236 238 182 231 151 203 195 178 195 187 169 194 195 197 197 185 179 189 158 185 181 174
226 281 283 278 283 285 293 301 318 316 321 335 347 362 366 396 370 252 242 244 104 232 189 231 139 156 208 208 202 184 183 184 177 198 193 198 185 197 194 193 195 190 183
224 277 283 280 285 276 277 296 307 311 318 325 345 346 367 364 363 349 274 226 127 252 226 248 216 262 235 213 199 192 187 179 183 186 187 190 180 192 191 159 144 200 173
226 249 255 273 277 270 285 292 299 308 312 320 319 333 341 353 360 332 282 253 241 264 179 206 221 213 145 253 219 200 177 192 176 196 200 195 195 193 193 191 183 194 190
218 238 245 271 288 266 285 287 293 297 307 294 305 299 308 301 297 313 310 232 236 261 264 222 208 213 218 230 249 239 203 192 198 187 188 184 190 151 183 188 190 199 190
224 238 254 262 275 268 262 297 297 299 306 301 290 295 285 294 293 305 284 306 250 227 270 237 214 200 235 213 216 239 243 207 203 203 202 160 201 172 201 204 197 191 181
217 262 242 253 268 263 256 276 296 297 303 301 285 287 279 291 287 277 283 285 302 255 247 259 218 205 203 218 234 215 182 225 228 236 239 196 211 208 202 199 193 208 189
222 213 231 220 251 237 267 261 315 302 295 310 277 289 274 266 271 286 305 276 284 294 226 257 239 213 210 203 197 192 211 219 206 201 237 229 227 223 206 206 190 206 191
225 219 207 207 210 250 270 249 277 305 303 297 301 272 279 265 267 274 279 278 281 289 270 215 256 230 214 204 203 204 200 223 189 191 210 184 183 182 209 202 209 216 222
234 211 256 242 232 255 257 258 264 304 308 305 296 287 274 269 269 264 276 274 276 298 292 276 215 248 226 213 213 219 206 202 199 188 189 182 218 184 200 194 189 191 199
234 216 210 204 212 252 246 254 260 262 269 271 278 279 284 279 289 284 285 302 293 289 293 296 259 220 242 235 218 210 207 206 204 203 197 199 202 194 205 199 211 219 201
235 227 212 210 216 232 251 243 247 250 248 264 256 273 274 276 288 275 277 280 294 310 254 229 321 317 224 213 226 236 227 216 212 207 205 206 207 205 201 201 200 195 204
235 233 221 202 224 242 251 181 237 227 249 250 250 264 254 254 257 267 254 255 261 266 278 285 287 289 282 304 216 212 210 226 224 191 158 217 213 210 203 205 205 206 213
234 232 227 215 204 207 226 241 210 244 230 244 245 232 239 240 245 237 249 237 168 244 240 239 271 253 275 173 243 286 221 215 216 211 210 216 208 206 207 213 215 218 242
240 226 230 224 213 201 212 225 229 189 247 246 238 237 237 232 237 238 237 240 250 244 254 259 260 258 260 258 260 263 266 269 275 277 274 273 269 265 258 257 250 253 246
234 239 230 228 219 210 203 209 219 213 215 235 243 253 246 233 243 242 243 249 247 151 250 248 247 256 257 260 259 256 255 254 252 250 248 247 248 247 243 237 231 223 203
Wind_Speed
61 63 70 71 46 77 79 80 82 94 96 92 89 82 82 79 80 85 68 66 69 68 69 69 71 61 63 67 63 63 59 66 67 68 50 52 54 63 58 60 63 68 69
58 62 65 69 46 74 77 81 84 84 86 89 88 94 92 83 83 86 89 79 77 78 80 75 70 64 72 71 66 71 67 70 71 59 68 67 69 65 71 71 71 72 70
55 54 65 68 74 76 78 79 82 81 81 85 88 90 94 95 89 89 94 84 84 84 86 83 79 79 71 74 60 72 71 68 62 61 70 71 67 76 75 69 73 76 74
52 55 62 69 70 71 74 77 79 82 84 88 82 69 52 96 97 96 100 91 91 87 83 93 71 81 84 75 77 58 72 72 71 71 72 75 78 74 74 62 77 76 73
48 51 57 57 66 67 69 71 74 76 82 86 91 92 84 90 94 107 99 101 99 63 49 96 92 88 84 79 81 78 76 70 59 78 75 72 74 78 75 77 76 77 60
45 48 53 53 46 51 64 67 71 75 77 82 85 88 91 95 87 95 105 100 99 101 95 94 89 72 43 91 55 79 80 55 79 78 77 63 58 58 72 67 56 62 70
47 47 49 52 26 37 42 63 66 69 72 77 80 78 89 89 95 87 93 98 103 70 95 95 59 91 90 89 79 87 46 74 77 84 67 61 72 61 69 61 74 67 81
44 42 35 30 28 22 22 25 27 28 33 39 71 77 81 95 92 96 87 92 69 105 99 52 102 92 90 96 95 96 87 74 90 60 82 70 79 67 80 54 85 81 68
40 43 38 35 26 31 23 19 24 32 23 26 29 53 80 85 87 90 93 89 91 94 46 97 72 96 102 97 81 95 88 96 65 92 80 67 86 75 80 54 53 86 58
37 32 31 31 28 24 32 23 18 20 20 19 24 33 49 84 86 80 87 94 86 67 96 106 102 93 101 86 104 66 88 78 99 68 78 62 53 93 88 84 80 72 79
36 39 37 32 33 23 27 30 20 18 13 12 16 19 23 28 82 83 79 86 92 95 92 61 107 54 102 98 79 101 100 71 103 103 103 99 87 81 94 82 80 93 85
33 35 32 28 27 29 29 28 20 17 11 9 13 19 17 23 44 86 82 83 46 93 66 86 47 58 101 103 104 93 93 97 73 107 102 104 92 104 102 104 107 98 93
30 31 29 29 27 26 29 27 21 13 8 3 8 14 22 21 35 46 70 78 46 97 84 86 87 87 101 105 101 92 99 86 91 95 90 99 83 104 101 75 78 108 91
27 31 25 26 28 23 27 26 20 13 5 13 18 16 25 23 25 37 63 91 84 94 64 75 70 85 51 95 109 104 81 105 79 114 112 106 99 104 106 105 90 109 104
29 28 29 25 27 20 25 25 20 12 3 11 25 22 28 26 29 27 49 77 78 86 90 82 81 75 88 87 92 105 109 96 111 95 93 86 103 73 87 97 102 116 108
23 25 27 23 19 18 18 23 15 9 2 21 28 29 31 38 38 33 58 43 87 70 88 87 82 86 83 90 93 93 95 110 111 116 115 65 115 71 118 121 108 102 87
24 20 22 24 22 24 20 29 19 7 1 25 25 29 25 34 41 51 52 57 48 82 79 87 83 85 87 91 91 89 72 95 100 98 100 84 119 119 117 110 101 120 100
19 23 17 16 20 16 23 21 16 3 0 20 27 38 36 33 35 22 25 56 53 54 73 83 88 87 91 92 85 85 83 95 93 95 98 105 109 112 115 119 97 119 101
16 19 22 21 21 20 21 15 26 5 7 17 29 37 41 37 36 34 32 34 38 43 75 72 84 91 90 89 91 90 83 88 84 89 92 76 74 80 115 113 121 122 117
13 22 11 14 19 16 18 17 22 16 11 19 22 42 38 36 33 35 30 32 37 31 40 58 75 86 94 93 95 98 93 90 90 86 89 79 100 84 89 104 96 101 113
15 20 21 22 18 15 12 15 15 22 21 12 11 15 20 20 19 30 31 20 35 36 31 30 65 79 86 94 96 95 96 95 95 94 92 97 101 99 96 102 109 105 108
19 17 20 20 17 12 9 10 10 13 14 19 16 11 7 9 10 13 11 14 13 11 17 27 20 27 85 82 87 94 97 99 99 98 101 104 107 106 103 103 102 101 111
24 20 19 23 12 8 5 24 4 4 10 11 14 11 11 9 8 11 7 8 12 15 17 21 24 27 32 33 84 83 84 89 92 72 54 99 104 105 103 106 108 112 116
28 25 23 22 22 19 9 0 15 4 5 5 7 5 10 10 8 3 2 15 31 12 15 20 18 24 26 36 31 33 81 88 91 93 94 97 99 101 105 108 111 113 102
31 31 28 25 24 26 17 7 4 24 3 5 4 3 3 3 4 5 7 8 12 15 14 16 18 22 25 29 34 38 43 45 44 44 48 49 53 57 65 70 81 78 83
37 35 33 31 28 27 26 20 14 13 10 3 6 9 11 8 10 10 11 12 13 33 17 18 19 22 25 27 28 30 34 37 40 44 48 53 57 61 66 70 75 80 79
Wind_Direction
249 252 252 249 246 246 244 241 239 244 243 241 240 239 237 238 239 248 237 230 254 239 260 253 249 245 247 251 252 253 255 256 262 267 267 267 269 269 271 269 269 271 273
260 257 258 255 248 249 251 247 243 241 240 240 241 240 239 234 240 240 237 240 252 252 253 246 254 240 244 249 249 255 256 262 265 258 269 267 270 267 272 272 272 274 273
268 272 261 259 258 252 249 247 247 249 244 241 239 238 237 237 232 241 244 247 250 249 248 251 254 253 251 258 256 256 261 256 260 256 269 263 270 270 272 274 274 279 280
285 272 267 266 264 265 258 252 249 245 241 240 244 241 255 234 235 231 234 244 246 250 251 250 256 249 254 256 253 265 256 261 268 254 268 266 271 272 276 274 274 276 282
291 279 272 272 268 266 262 258 252 248 244 240 240 236 238 234 233 231 232 232 237 252 262 247 249 245 255 260 248 246 262 264 260 260 260 258 258 267 265 267 271 273 281
296 285 275 277 274 270 263 257 252 249 246 243 241 238 237 234 234 231 229 231 231 234 242 243 245 260 257 257 259 258 262 271 257 261 255 270 278 284 268 281 280 281 278
303 287 283 280 297 274 264 258 257 252 248 245 241 235 230 236 232 233 230 228 229 235 235 242 258 249 254 259 260 257 266 263 265 261 272 270 269 273 280 280 280 287 280
299 298 332 338 337 306 276 286 285 278 265 254 240 238 230 228 231 229 231 229 233 227 233 243 235 249 255 253 256 255 260 264 255 265 265 268 260 282 275 276 283 283 281
305 306 330 321 341 347 324 303 301 263 292 256 240 231 232 229 231 230 226 229 229 228 244 231 240 239 242 252 255 257 264 256 262 256 261 275 270 268 284 285 283 285 288
304 332 334 334 323 332 341 320 299 309 290 277 244 235 232 225 234 230 229 226 228 236 229 227 232 245 241 249 248 270 266 265 258 265 268 276 269 272 278 275 282 290 287
296 328 326 342 340 342 345 337 317 318 305 283 249 238 225 219 226 229 228 224 225 229 229 245 226 252 238 244 257 250 257 272 261 262 262 262 267 275 273 278 279 275 287
294 323 327 334 342 350 350 341 326 329 327 292 247 222 215 197 218 221 226 225 266 228 247 229 259 250 236 239 243 255 260 264 268 261 267 264 273 270 271 273 273 280 288
294 329 336 344 341 348 346 341 348 339 344 229 201 175 182 191 197 209 222 228 255 226 230 228 231 232 232 235 243 247 253 261 270 262 273 269 279 271 274 278 279 279 279
299 322 321 346 346 343 346 350 350 355 9 143 127 135 137 137 174 196 217 223 224 225 241 232 234 235 264 237 236 242 258 252 272 261 262 267 269 272 274 277 285 281 284
291 314 324 343 356 349 0 350 344 354 85 161 130 127 131 161 184 204 214 229 229 225 224 228 232 233 237 238 240 240 243 252 252 267 269 275 271 267 284 280 281 279 284
301 310 334 348 357 351 353 356 354 351 77 179 167 165 177 172 183 183 216 208 226 229 225 226 229 238 233 239 240 242 244 245 250 254 260 268 263 282 271 272 278 284 290
286 319 327 330 359 349 348 4 352 354 60 174 180 159 173 178 193 213 214 225 226 227 227 225 229 235 240 240 240 244 259 246 250 253 255 263 262 265 270 276 282 277 289
285 288 314 285 346 328 358 4 354 336 86 165 186 173 180 204 213 207 187 225 231 231 229 228 226 233 237 245 250 254 253 248 256 259 255 257 259 262 269 272 283 278 287
272 287 282 295 305 341 356 350 20 21 139 159 181 188 184 194 212 223 230 230 235 235 230 233 230 231 237 245 248 252 257 251 263 266 264 275 265 285 269 276 276 276 280
265 269 302 326 329 337 355 6 30 28 146 148 155 189 196 197 205 225 228 230 239 243 240 235 234 233 234 241 245 248 253 258 261 265 268 275 266 283 280 279 284 285 285
249 254 270 277 295 348 357 10 35 48 56 70 119 145 154 169 189 209 221 208 218 228 235 235 232 238 238 240 244 249 252 256 260 262 269 270 270 274 276 278 278 282 287
245 244 251 270 285 325 321 340 24 61 70 65 76 109 148 182 202 215 194 199 180 181 226 241 234 235 239 244 245 247 251 255 259 262 265 267 268 271 276 280 284 287 288
243 240 240 247 272 308 327 236 337 325 70 87 88 88 102 99 109 158 200 233 230 225 215 222 228 230 240 246 247 251 254 255 258 269 271 265 269 273 279 281 283 285 286
233 235 236 232 240 256 275 24 236 314 306 60 82 112 110 103 90 229 235 247 249 256 252 251 230 242 245 260 256 255 255 258 260 263 267 269 273 276 279 280 282 283 284
223 228 229 232 231 239 253 259 264 236 239 239 261 211 205 198 175 198 212 221 217 231 232 228 234 239 243 246 248 251 254 256 262 267 269 274 276 279 279 281 284 287 288
222 223 226 228 228 232 237 245 238 251 258 234 208 216 223 252 229 232 237 237 244 261 252 253 255 251 253 259 262 265 267 270 273 274 276 277 280 282 283 285 286 288 292